Theta_e
359 359 357 356 356 358 360 360 359 359 362 359 357 360 360 363 364 364 362 365 368 369 371 373 375 373 367 369 374 372 368 370 369 364 367 366 364 363 359 360 361 359
361 361 360 358 358 361 361 361 363 362 362 364 363 362 365 366 366 366 366 364 366 367 370 370 372 372 371 367 372 367 369 369 369 361 365 367 366 363 362 362 361 363
360 360 358 357 354 357 356 360 363 362 361 360 362 364 362 365 366 368 368 366 366 365 368 370 370 371 369 369 372 368 365 370 368 364 368 368 366 364 366 361 360 361
361 360 357 355 353 353 356 359 361 361 362 360 360 361 362 362 364 365 366 367 366 367 367 367 367 367 368 369 372 367 366 371 368 367 365 367 367 365 364 364 362 361
358 359 358 357 355 356 357 356 357 359 360 360 360 363 364 366 366 364 365 366 367 366 367 366 368 367 368 370 372 368 366 365 367 372 369 368 369 367 362 362 364 362
360 361 361 358 357 357 354 354 356 357 359 358 358 360 362 363 363 363 362 363 362 361 361 363 364 364 365 368 369 368 366 362 363 368 368 368 366 364 361 361 364 363
357 359 358 358 357 356 355 355 355 357 356 359 361 360 362 361 360 361 363 362 361 363 361 363 365 365 365 367 368 369 368 367 368 369 370 367 367 365 362 363 364 364
357 357 359 359 357 354 355 353 353 355 357 358 357 361 361 359 360 360 360 360 361 361 361 362 364 367 365 365 366 365 367 363 364 367 369 367 365 366 366 361 364 365
358 358 357 357 356 353 351 350 350 353 357 356 355 356 360 359 358 358 360 362 360 361 363 363 364 366 366 365 364 365 366 364 362 365 366 365 364 364 364 365 363 363
358 358 356 356 354 353 350 351 350 351 354 354 354 353 352 358 357 358 360 362 360 361 363 365 365 365 364 365 365 366 366 366 366 365 365 365 364 364 363 364 363 363
358 357 356 356 356 353 351 350 350 349 352 353 353 351 352 352 358 359 360 362 359 361 364 366 366 366 367 364 363 364 365 365 366 366 366 366 365 365 365 365 364 364
361 357 357 358 357 356 352 351 351 350 351 352 354 351 352 351 353 358 358 360 361 363 364 367 368 367 368 367 364 363 363 364 365 366 365 365 366 364 365 366 364 364
359 358 361 358 358 359 357 354 352 351 350 350 353 353 351 350 350 354 358 360 363 364 365 366 367 366 368 370 369 366 365 364 362 361 362 362 364 362 362 363 362 362
361 360 362 361 362 364 362 359 355 353 353 354 353 353 351 350 349 350 354 358 361 363 366 369 370 369 371 371 370 367 364 362 361 359 359 360 361 362 363 362 361 360
364 361 364 365 364 366 365 363 361 359 357 356 356 353 351 352 351 349 351 355 359 361 364 367 368 368 368 369 370 369 368 362 360 360 361 361 361 361 362 362 363 363
363 364 365 367 366 365 366 366 365 363 359 358 356 354 355 356 355 354 355 354 357 360 363 367 368 367 369 369 368 368 367 364 364 361 360 360 361 364 361 360 360 361
359 363 364 364 365 364 357 358 362 364 362 362 362 360 359 361 359 359 359 358 357 357 361 361 364 363 360 350 350 357 365 364 360 362 363 363 361 362 361 360 360 360
351 353 355 360 363 365 359 360 364 360 365 365 364 361 365 363 360 361 362 362 362 360 358 359 356 343 334 340 345 346 357 361 361 360 360 360 362 360 360 360 360 360
350 350 354 356 359 355 352 353 355 358 363 362 360 360 359 360 363 363 362 361 361 360 359 358 352 333 331 334 335 336 339 352 359 359 358 358 360 361 363 363 364 362
349 350 351 351 350 350 349 350 351 351 353 353 355 360 360 360 362 359 358 357 359 361 362 361 345 329 328 330 332 333 336 344 356 358 358 358 362 363 362 363 364 364
349 347 347 347 348 348 348 348 350 351 352 356 357 356 356 358 360 356 356 357 355 355 354 343 335 320 324 326 327 330 333 345 357 356 358 359 361 361 362 362 364 363
347 347 346 345 347 348 347 347 348 349 349 349 347 347 351 352 352 347 345 348 348 348 352 351 335 317 319 320 321 325 331 351 357 356 356 357 358 360 360 361 361 360
348 348 347 346 347 346 346 346 345 344 346 348 343 344 346 346 348 345 344 346 349 351 352 346 340 322 315 315 317 319 329 354 357 356 356 356 357 358 360 360 360 360
345 346 347 345 344 343 344 345 346 346 345 348 347 346 345 344 344 345 344 344 343 341 344 341 336 322 313 313 314 317 331 350 353 353 355 355 356 358 358 358 358 356
342 342 342 342 341 341 342 343 345 346 347 349 348 346 344 344 343 339 339 340 338 338 338 339 335 327 313 311 312 314 331 351 351 351 351 351 351 351 352 353 355 354
342 341 342 342 341 340 341 341 344 345 342 343 344 343 338 337 339 336 335 335 336 335 337 338 336 330 320 309 309 311 315 342 347 346 344 345 347 347 347 350 351 352
Wind_Speed
9 8 8 8 7 6 5 5 5 5 4 4 4 3 3 3 3 4 4 4 4 5 4 4 4 4 4 4 3 3 3 3 4 4 3 4 5 5 5 4 4 5
10 9 8 7 6 6 5 5 5 5 5 5 5 3 4 4 5 5 5 5 6 6 5 5 5 5 4 4 4 4 3 4 5 4 3 4 5 6 5 6 5 4
11 10 10 10 9 9 9 8 7 6 6 6 6 5 5 5 6 5 5 5 5 5 6 5 5 5 5 5 5 5 6 5 5 4 4 4 5 5 5 6 5 5
12 11 11 11 10 9 9 8 8 7 7 6 6 6 6 5 5 5 6 6 6 6 6 6 6 5 6 6 6 5 6 5 5 4 5 6 6 6 6 5 5 6
13 12 11 10 10 9 9 9 10 9 9 7 7 7 6 5 5 6 6 6 6 7 7 7 7 7 6 6 6 6 6 6 6 6 6 6 6 6 6 6 6 6
12 11 11 11 10 10 10 10 10 9 9 9 9 7 7 7 7 7 7 7 8 8 8 8 8 8 8 7 7 6 6 6 6 6 7 7 7 6 6 5 6 6
12 12 13 11 12 12 11 10 10 9 9 8 7 8 8 8 8 8 7 7 8 7 8 7 7 7 6 6 6 6 6 6 6 6 7 7 7 7 7 6 6 7
13 11 12 11 12 12 12 11 11 10 10 9 10 9 9 9 9 8 8 8 8 8 8 7 7 7 7 7 7 8 8 7 8 9 8 8 7 7 7 7 6 7
12 12 11 12 13 12 13 13 12 11 10 10 10 9 9 9 9 9 8 8 8 7 7 8 7 8 8 8 8 8 8 8 8 7 8 8 9 8 8 7 8 8
12 11 12 12 12 12 13 13 12 11 11 11 11 10 10 9 9 9 8 8 8 8 8 8 7 8 8 8 8 8 8 9 8 8 8 8 8 8 8 8 8 8
11 11 12 12 12 11 13 13 12 11 10 11 11 11 10 9 8 9 8 8 9 9 9 8 8 8 8 9 8 8 9 9 9 8 8 9 9 8 8 8 8 8
11 11 12 12 12 12 12 12 11 12 11 10 11 11 10 10 9 8 9 9 9 8 8 8 8 8 8 8 9 9 8 9 8 8 8 8 8 9 9 9 9 9
11 9 11 11 11 11 10 10 10 11 11 11 10 10 11 11 11 10 8 9 9 9 8 8 8 8 8 8 8 8 8 8 9 8 8 8 9 9 9 9 10 9
10 11 11 9 8 8 9 9 9 10 10 10 10 10 10 11 10 10 10 9 9 9 9 8 7 8 7 8 8 9 8 8 9 9 9 9 9 8 9 9 10 10
7 8 8 8 8 7 8 9 9 9 8 8 9 9 9 9 10 10 10 9 9 9 8 8 8 8 8 7 8 8 6 10 10 9 10 9 9 10 10 10 9 10
8 6 6 6 7 8 6 8 9 8 8 8 8 9 8 8 7 8 9 10 8 9 8 8 7 7 7 7 7 6 6 6 4 7 8 10 10 9 10 10 11 10
8 6 5 5 5 6 8 11 10 7 7 6 6 6 6 6 6 8 8 7 9 8 9 8 8 5 8 10 8 6 6 4 5 8 8 8 9 10 10 10 10 10
4 7 7 5 6 4 3 8 6 7 5 4 5 6 5 6 7 7 7 8 7 9 8 7 8 7 10 9 6 4 5 6 6 6 6 7 8 11 10 8 8 9
8 8 7 7 5 4 5 3 5 6 3 4 5 5 6 6 6 7 7 7 8 8 8 5 4 9 5 7 7 6 6 6 7 7 8 8 10 10 8 7 7 8
6 6 4 3 2 2 3 2 3 5 3 5 7 5 4 5 3 5 4 8 7 3 2 1 8 8 5 5 5 4 3 3 6 8 8 11 9 8 8 7 7 6
6 4 3 4 4 4 4 4 2 1 0 1 1 2 3 3 4 4 5 5 6 5 1 7 7 11 8 7 3 2 3 7 5 6 7 7 7 7 7 8 8 8
4 4 4 6 7 6 6 6 4 4 7 5 4 3 3 4 5 5 5 3 5 10 5 3 7 12 11 10 8 8 8 6 4 4 5 7 7 8 7 7 7 7
5 6 7 8 7 7 6 6 7 6 6 5 2 2 2 5 5 4 3 6 4 4 4 6 6 10 10 10 10 11 9 7 6 5 6 6 6 6 6 6 7 6
3 1 2 5 5 6 6 5 5 5 5 5 4 4 3 3 3 4 2 4 8 9 8 6 5 8 11 11 11 12 10 7 6 7 6 5 6 6 6 6 7 11
8 6 5 5 5 6 6 5 6 6 6 5 4 3 3 4 7 6 5 4 6 8 8 6 5 6 10 11 12 13 10 4 4 5 5 5 6 6 6 6 7 4
8 7 5 5 5 5 5 5 5 5 6 6 5 4 6 7 7 6 5 4 6 7 6 5 5 5 9 11 12 13 14 7 4 4 4 4 5 5 5 5 5 6
Wind_Direction
206 206 207 210 216 223 225 218 226 221 228 242 236 212 225 220 220 235 230 219 207 221 205 208 207 218 226 214 220 235 261 267 312 273 245 265 266 263 262 255 259 253
209 209 211 212 208 212 218 232 222 237 227 236 251 240 221 224 213 214 221 223 213 215 217 212 212 215 224 231 199 230 231 250 247 248 230 244 258 264 259 259 269 280
212 209 209 213 211 207 218 214 225 227 228 228 221 228 232 210 223 211 220 223 224 224 205 212 218 216 221 218 213 225 225 220 234 257 295 271 267 262 270 274 253 238
213 217 215 217 219 215 213 218 211 220 235 224 227 225 222 235 218 216 212 219 228 225 227 221 225 222 215 215 214 226 227 222 232 227 223 241 249 255 258 256 262 264
212 212 219 221 221 222 220 218 220 213 219 224 224 220 225 227 241 231 217 212 219 225 215 222 217 221 218 221 219 230 227 226 218 212 231 241 245 242 248 249 256 257
211 215 216 222 223 221 219 219 219 225 222 218 219 225 215 213 225 234 230 223 213 218 226 218 215 217 219 213 220 231 234 233 224 209 226 233 244 245 243 233 231 240
212 211 217 217 222 219 223 222 222 222 226 228 220 221 221 216 215 223 228 229 239 235 231 226 222 229 224 225 223 222 230 241 248 230 225 236 235 244 250 246 242 247
220 216 214 219 221 221 219 221 222 220 222 226 227 220 221 223 221 219 215 223 229 230 237 239 225 220 236 230 226 225 232 230 225 227 232 239 247 240 240 251 243 238
224 222 217 219 221 222 221 221 217 219 218 223 227 227 217 226 224 224 224 220 228 233 229 232 233 232 230 237 235 229 234 243 244 227 226 235 231 233 238 238 240 241
219 227 226 219 222 222 225 221 222 215 214 222 226 230 230 219 228 233 221 216 226 226 225 231 229 228 236 232 229 236 240 240 242 247 245 237 241 243 239 236 241 242
221 220 223 226 226 227 223 222 222 223 215 219 222 224 229 230 214 222 231 220 223 222 222 223 225 227 228 236 239 235 237 241 241 240 239 242 245 245 245 249 249 248
232 224 222 224 228 230 230 227 224 225 225 218 223 225 229 230 230 219 217 219 224 230 226 219 222 227 226 235 241 243 238 241 244 245 246 248 247 244 242 241 243 244
212 236 237 224 225 234 237 233 232 228 227 229 221 226 228 230 227 227 227 226 220 224 231 227 222 224 226 225 237 250 255 252 255 248 248 245 242 245 247 241 240 242
229 216 228 236 235 231 240 244 237 235 233 229 232 229 230 233 235 231 226 229 229 222 221 226 224 228 227 230 234 238 240 252 239 250 252 252 255 255 255 252 246 246
238 243 224 222 233 234 235 242 242 238 233 234 231 235 234 233 235 242 242 236 232 231 225 216 227 226 229 225 229 230 229 250 251 245 244 246 250 254 250 252 258 257
234 239 236 215 217 228 245 241 233 238 237 235 234 233 233 238 249 248 247 243 238 233 229 225 231 235 218 208 220 242 246 261 349 329 304 293 277 262 261 254 249 253
288 236 250 213 226 231 211 237 246 232 228 237 241 239 242 240 239 245 250 253 250 243 230 222 235 334 328 192 204 240 269 254 220 233 236 243 263 277 268 265 265 260
220 281 230 228 234 224 321 289 247 246 256 224 225 231 226 237 240 243 252 257 255 254 254 251 71 53 30 12 8 359 272 266 258 251 253 254 243 247 254 258 261 265
194 205 213 197 172 151 159 147 329 321 274 255 246 247 254 246 242 251 252 257 260 263 268 57 93 75 84 59 61 51 29 302 262 267 276 285 266 261 266 267 270 272
174 183 191 162 143 106 80 48 169 191 257 276 285 286 281 278 342 322 328 283 281 303 296 75 77 29 25 86 98 122 127 241 259 270 252 248 265 287 287 289 285 286
185 187 167 180 183 158 155 172 184 63 272 214 360 322 356 13 7 3 332 346 347 314 344 60 48 17 7 6 335 299 192 236 238 254 275 287 284 280 283 281 282 274
211 173 158 183 168 158 159 158 132 81 70 63 53 36 50 46 43 9 21 8 341 309 298 90 66 32 5 344 334 292 288 255 248 266 269 278 279 278 283 284 287 294
212 208 182 177 169 154 153 145 136 115 107 99 89 274 29 82 74 84 306 314 306 290 288 74 49 32 14 353 334 330 293 283 284 271 269 270 279 285 287 289 290 306
51 14 106 95 98 107 106 110 116 112 122 121 134 196 167 107 71 70 55 17 47 45 36 65 60 34 23 4 353 347 323 305 306 290 292 294 290 293 296 300 307 311
59 51 43 61 85 84 87 95 104 115 116 103 95 109 107 107 93 87 75 64 76 72 53 57 61 48 32 18 8 2 346 337 342 326 318 332 319 317 335 318 312 6
62 63 48 43 45 59 63 58 88 96 107 111 104 91 86 81 81 85 92 92 75 69 60 44 60 56 38 28 20 11 360 347 30 6 9 353 346 341 329 319 330 323